Date String (YYYY-MM-DD hh:mm:ss) UTC,Instrument flags,Ambient pressure (hPa),Sample flow (lpm),Bypass flow (lpm),Sample temperature (°C),Ambient temperature (°C),ASC tube jacket temperature (°C),LED temperature (°C),Box temperature (°C),Sample RH (%),Span deviation,Mass concentration (μg/m³),Mass concentration (μg/m³),Mass concentration (μg/m³)
DateTimeUTC,F1_M11,P_M11,Q1_M11,Q2_M11,T1_M11,T2_M11,T3_M11,T4_M11,T5_M11,U1_M11,ZSPAN_M11,X0_M11,X2_M11,X1_M11
2021-08-23 19:00:00,,0826.2,4.99,0.00,28.9,25.6,00.0,38.0,30.2,21.6,0002.8,0013.15,0008.14,0007.60
2021-08-23 19:01:00,,0826.2,4.99,0.00,28.8,26.0,00.0,38.0,30.3,21.1,0002.8,0012.81,0008.11,0007.60
2021-08-23 19:02:00,,0826.2,5.01,0.00,28.8,26.4,00.0,37.9,30.4,21.3,0002.8,0012.34,0008.13,0007.61
2021-08-23 19:03:00,,0826.2,5.00,0.00,28.8,26.8,00.0,37.9,30.5,21.4,0003.0,0012.39,0008.12,0007.60
2021-08-23 19:04:00,,0826.2,5.01,0.00,28.8,27.2,00.0,37.9,30.7,20.4,0003.1,0012.11,0007.88,0007.39
2021-08-23 19:05:00,,0826.1,5.00,0.00,28.9,27.6,00.0,37.9,30.8,20.7,0003.0,0011.67,0007.51,0007.06
2021-08-23 19:06:00,,0826.1,5.00,0.00,29.0,27.9,00.0,37.9,30.9,21.8,0003.1,0011.43,0007.31,0006.85
2021-08-23 19:07:00,,0826.1,5.01,0.00,29.0,28.2,00.0,38.0,31.0,21.2,0002.9,0011.32,0007.23,0006.75
2021-08-23 19:08:00,,0826.2,4.99,0.00,29.1,27.6,00.0,38.0,30.8,21.2,0003.0,0011.05,0007.13,0006.64
2021-08-23 19:09:00,,0826.1,5.00,0.00,29.0,26.0,00.0,38.0,30.4,20.3,0002.9,0010.62,0006.96,0006.48
2021-08-23 19:10:00,,0826.1,4.99,0.00,28.8,25.7,00.0,38.0,30.2,20.4,0003.2,0009.97,0006.72,0006.24
2021-08-23 19:11:00,,0826.2,5.01,0.00,28.8,26.2,00.0,37.9,30.4,22.3,0003.0,0010.19,0006.68,0006.21
2021-08-23 19:12:00,,0826.2,5.01,0.00,28.8,26.6,00.0,37.9,30.5,23.0,0002.8,0010.78,0006.72,0006.23
2021-08-23 19:13:00,,0826.2,4.99,0.00,28.8,27.1,00.0,37.9,30.6,22.6,0002.7,0012.38,0006.75,0006.26
2021-08-23 19:14:00,,0826.2,5.00,0.00,28.9,27.5,00.0,37.9,30.8,22.4,0002.4,0012.59,0006.76,0006.29
2021-08-23 19:15:00,,0826.2,5.00,0.00,29.0,27.8,00.0,37.9,30.9,22.9,0002.3,0013.33,0006.90,0006.38
2021-08-23 19:16:00,,0826.2,5.00,0.00,29.0,28.1,00.0,38.0,31.0,22.9,0002.2,0013.69,0007.06,0006.49
2021-08-23 19:17:00,,0826.2,5.00,0.00,29.1,27.7,00.0,38.0,30.9,20.9,0002.2,0013.82,0007.06,0006.51
2021-08-23 19:18:00,,0826.2,5.00,0.00,29.0,26.2,00.0,38.0,30.5,20.6,0002.3,0013.85,0007.01,0006.44
2021-08-23 19:19:00,,0826.2,5.01,0.00,28.9,25.8,00.0,38.0,30.3,21.5,0001.8,0013.82,0006.99,0006.44
2021-08-23 19:20:00,,0826.2,4.99,0.00,28.8,26.2,00.0,38.0,30.5,22.1,0001.7,0013.87,0007.03,0006.47
2021-08-23 19:21:00,,0826.2,5.00,0.00,28.8,26.6,00.0,37.9,30.5,21.5,0001.9,0013.86,0007.10,0006.54
2021-08-23 19:22:00,,0826.1,5.01,0.00,28.9,27.0,00.0,37.9,30.7,21.7,0001.9,0013.44,0007.05,0006.51
2021-08-23 19:23:00,,0826.1,5.00,0.00,28.9,27.4,00.0,37.9,30.8,22.1,0002.2,0013.14,0007.00,0006.47
2021-08-23 19:24:00,,0826.1,5.00,0.00,29.0,27.8,00.0,37.9,30.9,22.0,0002.0,0011.37,0007.00,0006.47
2021-08-23 19:25:00,,0826.1,5.00,0.00,29.1,28.1,00.0,38.0,30.9,20.7,0002.0,0011.18,0006.99,0006.44
2021-08-23 19:26:00,,0826.0,5.00,0.00,29.0,26.9,00.0,38.0,30.6,21.0,0002.1,0010.58,0006.91,0006.40
2021-08-23 19:27:00,,0826.0,5.00,0.00,28.9,25.6,00.0,37.9,30.2,21.8,0002.4,0010.23,0006.80,0006.34
2021-08-23 19:28:00,,0826.0,5.00,0.00,28.8,25.9,00.0,37.9,30.3,21.8,0002.5,0010.00,0006.77,0006.32
2021-08-23 19:29:00,,0826.0,5.01,0.00,28.8,26.3,00.0,37.9,30.5,21.7,0002.3,0010.06,0006.83,0006.37
2021-08-23 19:30:00,,0826.0,4.99,0.00,28.8,26.8,00.0,37.9,30.6,21.9,0002.4,0010.12,0006.88,0006.42
2021-08-23 19:31:00,,0826.0,5.00,0.00,28.9,27.2,00.0,37.9,30.7,22.1,0002.4,0010.20,0006.92,0006.45
2021-08-23 19:32:00,,0826.0,5.00,0.00,28.9,27.6,00.0,37.9,30.8,22.8,0002.1,0010.33,0006.98,0006.50
2021-08-23 19:33:00,,0826.0,5.00,0.00,29.0,27.9,00.0,37.9,30.9,23.4,0001.5,0010.45,0006.99,0006.54
2021-08-23 19:34:00,,0826.0,5.01,0.00,29.0,27.7,00.0,37.9,30.8,22.1,0001.5,0010.65,0007.02,0006.58
2021-08-23 19:35:00,,0826.0,5.00,0.00,28.9,26.0,00.0,37.9,30.2,22.1,0001.6,0010.73,0007.05,0006.62
2021-08-23 19:36:00,,0826.1,5.00,0.00,28.8,25.5,00.0,37.9,30.1,22.7,0001.9,0010.90,0007.12,0006.68
2021-08-23 19:37:00,,0826.2,5.00,0.00,28.7,26.0,00.0,37.9,30.3,22.7,0001.6,0011.07,0007.22,0006.75
2021-08-23 19:38:00,,0826.2,5.00,0.00,28.7,26.4,00.0,37.8,30.4,23.1,0001.6,0011.33,0007.32,0006.82
2021-08-23 19:39:00,,0826.2,5.00,0.00,28.7,26.9,00.0,37.8,30.5,24.1,0001.5,0011.54,0007.43,0006.90
2021-08-23 19:40:00,,0826.4,5.01,0.00,28.8,27.3,00.0,37.8,30.7,22.8,0001.8,0011.65,0007.52,0006.98
2021-08-23 19:41:00,,0826.4,5.00,0.00,28.9,27.6,00.0,37.8,30.8,23.3,0002.0,0012.07,0007.62,0007.07
2021-08-23 19:42:00,,0826.5,4.99,0.00,28.9,27.9,00.0,37.9,30.9,23.8,0002.1,0012.51,0007.66,0007.15
2021-08-23 19:43:00,,0826.5,5.00,0.00,29.0,28.1,00.0,37.9,31.0,23.4,0002.1,0012.79,0007.70,0007.17
2021-08-23 19:44:00,,0826.5,5.01,0.00,29.0,27.1,00.0,37.9,30.7,22.6,0002.5,0012.92,0007.58,0007.02
2021-08-23 19:45:00,,0826.4,5.01,0.00,28.8,25.6,00.0,37.9,30.1,22.6,0002.6,0012.67,0007.31,0006.74
2021-08-23 19:46:00,,0826.4,4.99,0.00,28.7,25.7,00.0,37.9,30.2,22.8,0002.6,0012.32,0006.99,0006.43
2021-08-23 19:47:00,,0826.5,5.01,0.00,28.7,26.1,00.0,37.9,30.3,23.1,0002.4,0011.87,0006.65,0006.13
2021-08-23 19:48:00,,0826.5,4.99,0.00,28.7,26.6,00.0,37.8,30.5,23.3,0002.7,0011.70,0006.29,0005.80
2021-08-23 19:49:00,,0826.4,5.01,0.00,28.8,27.0,00.0,37.8,30.6,23.1,0002.2,0011.58,0005.93,0005.48
2021-08-23 19:50:00,,0826.4,5.00,0.00,28.8,27.4,00.0,37.8,30.7,22.4,0002.4,0011.17,0005.57,0005.15
2021-08-23 19:51:00,,0826.4,4.98,0.00,28.9,27.7,00.0,37.9,30.8,22.0,0002.4,0010.82,0005.25,0004.84
2021-08-23 19:52:00,,0826.3,5.01,0.00,29.0,28.0,00.0,37.9,30.9,22.1,0002.4,0010.23,0004.85,0004.46
2021-08-23 19:53:00,,0826.3,4.99,0.00,29.0,28.2,00.0,37.9,31.0,21.3,0000.0,0010.19,0004.51,0004.10
2021-08-23 19:54:00,,0826.2,5.00,0.00,29.0,27.4,00.0,37.9,30.8,21.2,0000.0,0009.49,0004.16,0003.76
2021-08-23 19:55:00,,0826.2,5.01,0.00,28.9,25.7,00.0,37.9,30.2,21.5,0000.0,0008.85,0003.95,0003.57
2021-08-23 19:56:00,,0826.2,4.99,0.00,28.8,25.6,00.0,37.9,30.2,22.1,0000.0,0008.20,0003.87,0003.52
2021-08-23 19:57:00,,0826.2,5.00,0.00,28.7,26.1,00.0,37.9,30.4,21.7,0000.0,0008.15,0003.79,0003.46
2021-08-23 19:58:00,,0826.2,5.00,0.00,28.7,26.5,00.0,37.9,30.5,21.8,0000.0,0008.03,0003.72,0003.40
2021-08-23 19:59:00,,0826.2,5.00,0.00,28.8,27.0,00.0,37.9,30.6,21.8,0000.0,0007.69,0003.65,0003.34
